Year,Month,Day,Hour,Minute,Value (Times are PST for temperature in C)
2015,06,25,00,00,16.20
2015,06,25,00,01,16.20
2015,06,25,00,02,16.20
2015,06,25,00,03,16.20
2015,06,25,00,04,16.20
2015,06,25,00,05,16.20
2015,06,25,00,06,16.20
2015,06,25,00,07,16.20
2015,06,25,00,08,16.20
2015,06,25,00,09,16.10
2015,06,25,00,10,16.10
2015,06,25,00,11,16.10
2015,06,25,00,12,16.10
2015,06,25,00,13,16.10
2015,06,25,00,14,16.10
2015,06,25,00,15,16.10
2015,06,25,00,16,16.10
2015,06,25,00,17,16.10
2015,06,25,00,18,16.10
2015,06,25,00,19,16.10
2015,06,25,00,20,16.10
2015,06,25,00,21,16.10
2015,06,25,00,22,16.10
2015,06,25,00,23,16.10
2015,06,25,00,24,16.00
2015,06,25,00,25,16.00
2015,06,25,00,26,16.00
2015,06,25,00,27,16.00
2015,06,25,00,28,16.00
2015,06,25,00,29,15.90
2015,06,25,00,30,15.90
2015,06,25,00,31,15.90
2015,06,25,00,32,15.90
2015,06,25,00,33,15.90
2015,06,25,00,34,15.90
2015,06,25,00,35,15.90
2015,06,25,00,36,15.90
2015,06,25,00,37,15.90
2015,06,25,00,38,15.80
2015,06,25,00,39,15.80
2015,06,25,00,40,15.80
2015,06,25,00,41,15.80
2015,06,25,00,42,15.80
2015,06,25,00,43,15.80
2015,06,25,00,44,15.80
2015,06,25,00,45,15.80
2015,06,25,00,46,15.80
2015,06,25,00,47,15.70
2015,06,25,00,48,15.70
2015,06,25,00,49,15.70
2015,06,25,00,50,15.70
2015,06,25,00,51,15.70
2015,06,25,00,52,15.70
2015,06,25,00,53,15.70
2015,06,25,00,54,15.70
2015,06,25,00,55,15.70
2015,06,25,00,56,15.70
2015,06,25,00,57,15.70
2015,06,25,00,58,15.70
2015,06,25,00,59,15.60
2015,06,25,01,00,15.60
2015,06,25,01,01,15.60
2015,06,25,01,02,15.60
2015,06,25,01,03,15.60
2015,06,25,01,04,15.60
2015,06,25,01,05,15.60
2015,06,25,01,06,15.50
2015,06,25,01,07,15.50
2015,06,25,01,08,15.50
2015,06,25,01,09,15.50
2015,06,25,01,10,15.50
2015,06,25,01,11,15.50
2015,06,25,01,12,15.50
2015,06,25,01,13,15.50
2015,06,25,01,14,15.50
2015,06,25,01,15,15.50
2015,06,25,01,16,15.50
2015,06,25,01,17,15.50
2015,06,25,01,18,15.50
2015,06,25,01,19,15.50
2015,06,25,01,20,15.50
2015,06,25,01,21,15.40
2015,06,25,01,22,15.40
2015,06,25,01,23,15.40
2015,06,25,01,24,15.40
2015,06,25,01,25,15.40
2015,06,25,01,26,15.40
2015,06,25,01,27,15.40
2015,06,25,01,28,15.40
2015,06,25,01,29,15.40
2015,06,25,01,30,15.40
2015,06,25,01,31,15.40
2015,06,25,01,32,15.40
2015,06,25,01,33,15.40
2015,06,25,01,34,15.40
2015,06,25,01,35,15.30
2015,06,25,01,36,15.30
2015,06,25,01,37,15.30
2015,06,25,01,38,15.30
2015,06,25,01,39,15.30
2015,06,25,01,40,15.30
2015,06,25,01,41,15.30
2015,06,25,01,42,15.30
2015,06,25,01,43,15.30
2015,06,25,01,44,15.30
2015,06,25,01,45,15.30
2015,06,25,01,46,15.30
2015,06,25,01,47,15.30
2015,06,25,01,48,15.30
2015,06,25,01,49,15.30
2015,06,25,01,50,15.30
2015,06,25,01,51,15.30
2015,06,25,01,52,15.30
2015,06,25,01,53,15.30
2015,06,25,01,54,15.30
2015,06,25,01,55,15.30
2015,06,25,01,56,15.30
2015,06,25,01,57,15.30
2015,06,25,01,58,15.30
2015,06,25,01,59,15.30
2015,06,25,02,00,15.30
2015,06,25,02,01,15.20
2015,06,25,02,02,15.20
2015,06,25,02,03,15.20
2015,06,25,02,04,15.20
2015,06,25,02,05,15.20
2015,06,25,02,06,15.20
2015,06,25,02,07,15.20
2015,06,25,02,08,15.20
2015,06,25,02,09,15.20
2015,06,25,02,10,15.10
2015,06,25,02,11,15.10
2015,06,25,02,12,15.10
2015,06,25,02,13,15.10
2015,06,25,02,14,15.10
2015,06,25,02,15,15.10
2015,06,25,02,16,15.10
2015,06,25,02,17,15.10
2015,06,25,02,18,15.10
2015,06,25,02,19,15.10
2015,06,25,02,20,15.10
2015,06,25,02,21,15.10
2015,06,25,02,22,15.10
2015,06,25,02,23,15.10
2015,06,25,02,24,15.10
2015,06,25,02,25,15.10
2015,06,25,02,26,15.10
2015,06,25,02,27,15.10
2015,06,25,02,28,15.10
2015,06,25,02,29,15.10
2015,06,25,02,30,15.10
2015,06,25,02,31,15.10
2015,06,25,02,32,15.10
2015,06,25,02,33,15.10
2015,06,25,02,34,15.10
2015,06,25,02,35,15.10
2015,06,25,02,36,15.20
2015,06,25,02,37,15.20
2015,06,25,02,38,15.20
2015,06,25,02,39,15.20
2015,06,25,02,40,15.20
2015,06,25,02,41,15.20
2015,06,25,02,42,15.20
2015,06,25,02,43,15.20
2015,06,25,02,44,15.20
2015,06,25,02,45,15.20
2015,06,25,02,46,15.20
2015,06,25,02,47,15.20
2015,06,25,02,48,15.20
2015,06,25,02,49,15.20
2015,06,25,02,50,15.20
2015,06,25,02,51,15.20
2015,06,25,02,52,15.20
2015,06,25,02,53,15.20
2015,06,25,02,54,15.20
2015,06,25,02,55,15.20
2015,06,25,02,56,15.20
2015,06,25,02,57,15.20
2015,06,25,02,58,15.20
2015,06,25,02,59,15.20
2015,06,25,03,00,15.20
2015,06,25,03,01,15.20
2015,06,25,03,02,15.20
2015,06,25,03,03,15.20
2015,06,25,03,04,15.20
2015,06,25,03,05,15.20
2015,06,25,03,06,15.20
2015,06,25,03,07,15.20
2015,06,25,03,08,15.20
2015,06,25,03,09,15.20
2015,06,25,03,10,15.10
2015,06,25,03,11,15.10
2015,06,25,03,12,15.10
2015,06,25,03,13,15.10
2015,06,25,03,14,15.10
2015,06,25,03,15,15.10
2015,06,25,03,16,15.10
2015,06,25,03,17,15.10
2015,06,25,03,18,15.10
2015,06,25,03,19,15.10
2015,06,25,03,20,15.10
2015,06,25,03,21,15.10
2015,06,25,03,22,15.10
2015,06,25,03,23,15.10
2015,06,25,03,24,15.10
2015,06,25,03,25,15.10
2015,06,25,03,26,15.10
2015,06,25,03,27,15.10
2015,06,25,03,28,15.10
2015,06,25,03,29,15.10
2015,06,25,03,30,15.10
2015,06,25,03,31,15.10
2015,06,25,03,32,15.10
2015,06,25,03,33,15.10
2015,06,25,03,34,15.10
2015,06,25,03,35,15.00
2015,06,25,03,36,15.00
2015,06,25,03,37,15.00
2015,06,25,03,38,15.00
2015,06,25,03,39,15.00
2015,06,25,03,40,15.00
2015,06,25,03,41,15.00
2015,06,25,03,42,15.00
2015,06,25,03,43,15.00
2015,06,25,03,44,15.00
2015,06,25,03,45,15.00
2015,06,25,03,46,15.00
2015,06,25,03,47,15.00
2015,06,25,03,48,15.10
2015,06,25,03,49,15.10
2015,06,25,03,50,15.10
2015,06,25,03,51,15.10
2015,06,25,03,52,15.10
2015,06,25,03,53,15.10
2015,06,25,03,54,15.10
2015,06,25,03,55,15.10
2015,06,25,03,56,15.10
2015,06,25,03,57,15.10
2015,06,25,03,58,15.10
2015,06,25,03,59,15.10
2015,06,25,04,00,15.10
2015,06,25,04,01,15.10
2015,06,25,04,02,15.10
2015,06,25,04,03,15.10
2015,06,25,04,04,15.10
2015,06,25,04,05,15.10
2015,06,25,04,06,15.10
2015,06,25,04,07,15.10
2015,06,25,04,08,15.10
2015,06,25,04,09,15.10
2015,06,25,04,10,15.10
2015,06,25,04,11,15.10
2015,06,25,04,12,15.10
2015,06,25,04,13,15.10
2015,06,25,04,14,15.10
2015,06,25,04,15,15.10
2015,06,25,04,16,15.10
2015,06,25,04,17,15.10
2015,06,25,04,18,15.10
2015,06,25,04,19,15.10
2015,06,25,04,20,15.10
2015,06,25,04,21,15.10
2015,06,25,04,22,15.10
2015,06,25,04,23,15.10
2015,06,25,04,24,15.10
2015,06,25,04,25,15.10
2015,06,25,04,26,15.10
2015,06,25,04,27,15.10
2015,06,25,04,28,15.10
2015,06,25,04,29,15.10
2015,06,25,04,30,15.10
2015,06,25,04,31,15.20
2015,06,25,04,32,15.10
2015,06,25,04,33,15.20
2015,06,25,04,34,15.20
2015,06,25,04,35,15.20
2015,06,25,04,36,15.20
2015,06,25,04,37,15.20
2015,06,25,04,38,15.20
2015,06,25,04,39,15.20
2015,06,25,04,40,15.20
2015,06,25,04,41,15.20
2015,06,25,04,42,15.20
2015,06,25,04,43,15.20
2015,06,25,04,44,15.20
2015,06,25,04,45,15.20
2015,06,25,04,46,15.20
2015,06,25,04,47,15.20
2015,06,25,04,48,15.20
2015,06,25,04,49,15.20
2015,06,25,04,50,15.20
2015,06,25,04,51,15.20
2015,06,25,04,52,15.20
2015,06,25,04,53,15.20
2015,06,25,04,54,15.20
2015,06,25,04,55,15.20
2015,06,25,04,56,15.20
2015,06,25,04,57,15.20
2015,06,25,04,58,15.20
2015,06,25,04,59,15.20
2015,06,25,05,00,15.20
2015,06,25,05,01,15.20
2015,06,25,05,02,15.20
2015,06,25,05,03,15.30
2015,06,25,05,04,15.30
2015,06,25,05,05,15.30
2015,06,25,05,06,15.30
2015,06,25,05,07,15.30
2015,06,25,05,08,15.30
2015,06,25,05,09,15.30
2015,06,25,05,10,15.30
2015,06,25,05,11,15.30
2015,06,25,05,12,15.30
2015,06,25,05,13,15.30
2015,06,25,05,14,15.30
2015,06,25,05,15,15.30
2015,06,25,05,16,15.30
2015,06,25,05,17,15.30
2015,06,25,05,18,15.30
2015,06,25,05,19,15.30
2015,06,25,05,20,15.30
2015,06,25,05,21,15.30
2015,06,25,05,22,15.30
2015,06,25,05,23,15.30
2015,06,25,05,24,15.30
2015,06,25,05,25,15.30
2015,06,25,05,26,15.30
2015,06,25,05,27,15.20
2015,06,25,05,28,15.20
2015,06,25,05,29,15.20
2015,06,25,05,30,15.20
2015,06,25,05,31,15.20
2015,06,25,05,32,15.20
2015,06,25,05,33,15.20
2015,06,25,05,34,15.20
2015,06,25,05,35,15.20
2015,06,25,05,36,15.20
2015,06,25,05,37,15.20
2015,06,25,05,38,15.20
2015,06,25,05,39,15.20
2015,06,25,05,40,15.20
2015,06,25,05,41,15.20
2015,06,25,05,42,15.10
2015,06,25,05,43,15.10
2015,06,25,05,44,15.10
2015,06,25,05,45,15.10
2015,06,25,05,46,15.10
2015,06,25,05,47,15.10
2015,06,25,05,48,15.20
2015,06,25,05,49,15.20
2015,06,25,05,50,15.20
2015,06,25,05,51,15.20
2015,06,25,05,52,15.20
2015,06,25,05,53,15.20
2015,06,25,05,54,15.20
2015,06,25,05,55,15.20
2015,06,25,05,56,15.20
2015,06,25,05,57,15.20
2015,06,25,05,58,15.20
2015,06,25,05,59,15.30
2015,06,25,06,00,15.30
2015,06,25,06,01,15.30
2015,06,25,06,02,15.30
2015,06,25,06,03,15.30
2015,06,25,06,04,15.30
2015,06,25,06,05,15.30
2015,06,25,06,06,15.40
2015,06,25,06,07,15.40
2015,06,25,06,08,15.40
2015,06,25,06,09,15.40
2015,06,25,06,10,15.50
2015,06,25,06,11,15.50
2015,06,25,06,12,15.50
2015,06,25,06,13,15.60
2015,06,25,06,14,15.60
2015,06,25,06,15,15.60
2015,06,25,06,16,15.60
2015,06,25,06,17,15.60
2015,06,25,06,18,15.60
2015,06,25,06,19,15.60
2015,06,25,06,20,15.70
2015,06,25,06,21,15.70
2015,06,25,06,22,15.70
2015,06,25,06,23,15.70
2015,06,25,06,24,15.70
2015,06,25,06,25,15.70
2015,06,25,06,26,15.70
2015,06,25,06,27,15.70
2015,06,25,06,28,15.70
2015,06,25,06,29,15.70
2015,06,25,06,30,15.70
2015,06,25,06,31,15.70
2015,06,25,06,32,15.70
2015,06,25,06,33,15.70
2015,06,25,06,34,15.70
2015,06,25,06,35,15.70
2015,06,25,06,36,15.70
2015,06,25,06,37,15.70
2015,06,25,06,38,15.70
2015,06,25,06,39,15.70
2015,06,25,06,40,15.70
2015,06,25,06,41,15.70
2015,06,25,06,42,15.70
2015,06,25,06,43,15.70
2015,06,25,06,44,15.70
2015,06,25,06,45,15.70
2015,06,25,06,46,15.70
2015,06,25,06,47,15.70
2015,06,25,06,48,15.70
2015,06,25,06,49,15.70
2015,06,25,06,50,15.70
2015,06,25,06,51,15.70
2015,06,25,06,52,15.70
2015,06,25,06,53,15.70
2015,06,25,06,54,15.70
2015,06,25,06,55,15.70
2015,06,25,06,56,15.70
2015,06,25,06,57,15.80
2015,06,25,06,58,15.80
2015,06,25,06,59,15.80
2015,06,25,07,00,15.80
2015,06,25,07,01,15.90
2015,06,25,07,02,15.90
2015,06,25,07,03,15.90
2015,06,25,07,04,15.90
2015,06,25,07,05,15.90
2015,06,25,07,06,16.00
2015,06,25,07,07,16.10
2015,06,25,07,08,16.10
2015,06,25,07,09,16.20
2015,06,25,07,10,16.30
2015,06,25,07,11,16.40
2015,06,25,07,12,16.40
2015,06,25,07,13,16.40
2015,06,25,07,14,16.50
2015,06,25,07,15,16.50
2015,06,25,07,16,16.60
2015,06,25,07,17,16.60
2015,06,25,07,18,16.60
2015,06,25,07,19,16.70
2015,06,25,07,20,16.70
2015,06,25,07,21,16.70
2015,06,25,07,22,16.70
2015,06,25,07,23,16.70
2015,06,25,07,24,16.80
2015,06,25,07,25,16.80
2015,06,25,07,26,16.80
2015,06,25,07,27,16.80
2015,06,25,07,28,16.90
2015,06,25,07,29,16.90
2015,06,25,07,30,16.90
2015,06,25,07,31,16.90
2015,06,25,07,32,16.90
2015,06,25,07,33,17.00
2015,06,25,07,34,17.00
2015,06,25,07,35,17.10
2015,06,25,07,36,17.10
2015,06,25,07,37,17.20
2015,06,25,07,38,17.30
2015,06,25,07,39,17.30
2015,06,25,07,40,17.40
2015,06,25,07,41,17.50
2015,06,25,07,42,17.60
2015,06,25,07,43,17.80
2015,06,25,07,44,17.80
2015,06,25,07,45,18.00
2015,06,25,07,46,18.00
2015,06,25,07,47,18.10
2015,06,25,07,48,18.20
2015,06,25,07,49,18.30
2015,06,25,07,50,18.30
2015,06,25,07,51,18.40
2015,06,25,07,52,18.50
2015,06,25,07,53,18.60
2015,06,25,07,54,18.70
2015,06,25,07,55,18.80
2015,06,25,07,56,18.80
2015,06,25,07,57,18.90
2015,06,25,07,58,19.00
2015,06,25,07,59,19.10
2015,06,25,08,00,19.20
2015,06,25,08,01,19.20
2015,06,25,08,02,19.30
2015,06,25,08,03,19.40
2015,06,25,08,04,19.50
2015,06,25,08,05,19.60
2015,06,25,08,06,19.70
2015,06,25,08,07,19.70
2015,06,25,08,08,19.80
2015,06,25,08,09,19.70
2015,06,25,08,10,19.70
2015,06,25,08,11,19.70
2015,06,25,08,12,19.70
2015,06,25,08,13,19.60
2015,06,25,08,14,19.60
2015,06,25,08,15,19.60
2015,06,25,08,16,19.60
2015,06,25,08,17,19.60
2015,06,25,08,18,19.60
2015,06,25,08,19,19.60
2015,06,25,08,20,19.50
2015,06,25,08,21,19.40
2015,06,25,08,22,19.40
2015,06,25,08,23,19.30
2015,06,25,08,24,19.30
2015,06,25,08,25,19.40
2015,06,25,08,26,19.40
2015,06,25,08,27,19.40
2015,06,25,08,28,19.50
2015,06,25,08,29,19.50
2015,06,25,08,30,19.60
2015,06,25,08,31,19.60
2015,06,25,08,32,19.60
2015,06,25,08,33,19.60
2015,06,25,08,34,19.60
2015,06,25,08,35,19.60
2015,06,25,08,36,19.60
2015,06,25,08,37,19.60
2015,06,25,08,38,19.60
2015,06,25,08,39,19.60
2015,06,25,08,40,19.60
2015,06,25,08,41,19.60
2015,06,25,08,42,19.60
2015,06,25,08,43,19.50
2015,06,25,08,44,19.50
2015,06,25,08,45,19.50
2015,06,25,08,46,19.60
2015,06,25,08,47,19.60
2015,06,25,08,48,19.70
2015,06,25,08,49,19.80
2015,06,25,08,50,19.80
2015,06,25,08,51,19.80
2015,06,25,08,52,19.90
2015,06,25,08,53,19.90
2015,06,25,08,54,20.00
2015,06,25,08,55,20.10
2015,06,25,08,56,20.20
2015,06,25,08,57,20.30
2015,06,25,08,58,20.30
2015,06,25,08,59,20.40
2015,06,25,09,00,20.50
2015,06,25,09,01,20.60
2015,06,25,09,02,20.70
2015,06,25,09,03,20.70
2015,06,25,09,04,20.70
2015,06,25,09,05,20.70
2015,06,25,09,06,20.60
2015,06,25,09,07,20.60
2015,06,25,09,08,20.60
2015,06,25,09,09,20.60
2015,06,25,09,10,20.60
2015,06,25,09,11,20.60
2015,06,25,09,12,20.60
2015,06,25,09,13,20.60
2015,06,25,09,14,20.60
2015,06,25,09,15,20.70
2015,06,25,09,16,20.70
2015,06,25,09,17,20.70
2015,06,25,09,18,20.70
2015,06,25,09,19,20.70
2015,06,25,09,20,20.70
2015,06,25,09,21,20.70
2015,06,25,09,22,20.70
2015,06,25,09,23,20.70
2015,06,25,09,24,20.80
2015,06,25,09,25,20.80
2015,06,25,09,26,20.80
2015,06,25,09,27,20.80
2015,06,25,09,28,20.80
2015,06,25,09,29,20.80
2015,06,25,09,30,20.80
2015,06,25,09,31,20.80
2015,06,25,09,32,20.80
2015,06,25,09,33,20.80
2015,06,25,09,34,20.90
2015,06,25,09,35,21.00
2015,06,25,09,36,20.90
2015,06,25,09,37,20.90
2015,06,25,09,38,20.90
2015,06,25,09,39,20.90
2015,06,25,09,40,20.90
2015,06,25,09,41,20.90
2015,06,25,09,42,20.90
2015,06,25,09,43,20.90
2015,06,25,09,44,20.90
2015,06,25,09,45,20.90
2015,06,25,09,46,21.00
2015,06,25,09,47,21.00
2015,06,25,09,48,21.00
2015,06,25,09,49,21.10
2015,06,25,09,50,21.10
2015,06,25,09,51,21.10
2015,06,25,09,52,21.10
2015,06,25,09,53,21.20
2015,06,25,09,54,21.20
2015,06,25,09,55,21.30
2015,06,25,09,56,21.30
2015,06,25,09,57,21.30
2015,06,25,09,58,21.40
2015,06,25,09,59,21.40
2015,06,25,10,00,21.40
2015,06,25,10,01,21.40
2015,06,25,10,02,21.40
2015,06,25,10,03,21.50
2015,06,25,10,04,21.50
2015,06,25,10,05,21.60
2015,06,25,10,06,21.50
2015,06,25,10,07,21.50
2015,06,25,10,08,21.40
2015,06,25,10,09,21.30
2015,06,25,10,10,21.30
2015,06,25,10,11,21.30
2015,06,25,10,12,21.20
2015,06,25,10,13,21.20
2015,06,25,10,14,21.20
2015,06,25,10,15,21.10
2015,06,25,10,16,21.00
2015,06,25,10,17,21.00
2015,06,25,10,18,20.90
2015,06,25,10,19,21.00
2015,06,25,10,20,21.10
2015,06,25,10,21,21.20
2015,06,25,10,22,21.30
2015,06,25,10,23,21.40
2015,06,25,10,24,21.50
2015,06,25,10,25,21.60
2015,06,25,10,26,21.70
2015,06,25,10,27,21.80
2015,06,25,10,28,21.90
2015,06,25,10,29,22.00
2015,06,25,10,30,22.10
2015,06,25,10,31,22.20
2015,06,25,10,32,22.30
2015,06,25,10,33,22.30
2015,06,25,10,34,22.40
2015,06,25,10,35,22.50
2015,06,25,10,36,22.60
2015,06,25,10,37,22.60
2015,06,25,10,38,22.70
2015,06,25,10,39,22.70
2015,06,25,10,40,22.70
2015,06,25,10,41,22.70
2015,06,25,10,42,22.70
2015,06,25,10,43,22.70
2015,06,25,10,44,22.70
2015,06,25,10,45,22.60
2015,06,25,10,46,22.70
2015,06,25,10,47,22.70
2015,06,25,10,48,22.80
2015,06,25,10,49,23.00
2015,06,25,10,50,23.10
2015,06,25,10,51,23.10
2015,06,25,10,52,23.10
2015,06,25,10,53,23.10
2015,06,25,10,54,23.20
2015,06,25,10,55,23.20
2015,06,25,10,56,23.20
2015,06,25,10,57,23.20
2015,06,25,10,58,23.10
2015,06,25,10,59,23.00
2015,06,25,11,00,22.90
2015,06,25,11,01,22.90
2015,06,25,11,02,22.80
2015,06,25,11,03,22.80
2015,06,25,11,04,22.90
2015,06,25,11,05,22.80
2015,06,25,11,06,22.90
2015,06,25,11,07,22.90
2015,06,25,11,08,22.90
2015,06,25,11,09,22.90
2015,06,25,11,10,23.00
2015,06,25,11,11,23.00
2015,06,25,11,12,23.10
2015,06,25,11,13,23.20
2015,06,25,11,14,23.20
2015,06,25,11,15,23.30
2015,06,25,11,16,23.30
2015,06,25,11,17,23.40
2015,06,25,11,18,23.30
2015,06,25,11,19,23.30
2015,06,25,11,20,23.20
2015,06,25,11,21,23.30
2015,06,25,11,22,23.20
2015,06,25,11,23,23.20
2015,06,25,11,24,23.20
2015,06,25,11,25,23.20
2015,06,25,11,26,23.20
2015,06,25,11,27,23.20
2015,06,25,11,28,23.20
2015,06,25,11,29,23.20
2015,06,25,11,30,23.20
2015,06,25,11,31,23.20
2015,06,25,11,32,23.30
2015,06,25,11,33,23.30
2015,06,25,11,34,23.30
2015,06,25,11,35,23.30
2015,06,25,11,36,23.40
2015,06,25,11,37,23.40
2015,06,25,11,38,23.40
2015,06,25,11,39,23.40
2015,06,25,11,40,23.40
2015,06,25,11,41,23.30
2015,06,25,11,42,23.30
2015,06,25,11,43,23.40
2015,06,25,11,44,23.40
2015,06,25,11,45,23.50
2015,06,25,11,46,23.60
2015,06,25,11,47,23.70
2015,06,25,11,48,23.70
2015,06,25,11,49,23.70
2015,06,25,11,50,23.70
2015,06,25,11,51,23.50
2015,06,25,11,52,23.40
2015,06,25,11,53,23.30
2015,06,25,11,54,23.30
2015,06,25,11,55,23.20
2015,06,25,11,56,23.30
2015,06,25,11,57,23.30
2015,06,25,11,58,23.30
2015,06,25,11,59,23.40
2015,06,25,12,00,23.40
2015,06,25,12,01,23.40
2015,06,25,12,02,23.40
2015,06,25,12,03,23.40
2015,06,25,12,04,23.30
2015,06,25,12,05,23.30
2015,06,25,12,06,23.30
2015,06,25,12,07,23.20
2015,06,25,12,08,23.20
2015,06,25,12,09,23.20
2015,06,25,12,10,23.30
2015,06,25,12,11,23.30
2015,06,25,12,12,23.30
2015,06,25,12,13,23.30
2015,06,25,12,14,23.30
2015,06,25,12,15,23.30
2015,06,25,12,16,23.40
2015,06,25,12,17,23.40
2015,06,25,12,18,23.40
2015,06,25,12,19,23.40
2015,06,25,12,20,23.40
2015,06,25,12,21,23.40
2015,06,25,12,22,23.30
2015,06,25,12,23,23.20
2015,06,25,12,24,23.10
2015,06,25,12,25,23.10
2015,06,25,12,26,23.10
2015,06,25,12,27,23.10
2015,06,25,12,28,23.00
2015,06,25,12,29,22.90
2015,06,25,12,30,22.90
2015,06,25,12,31,22.90
2015,06,25,12,32,22.90
2015,06,25,12,33,22.90
2015,06,25,12,34,22.90
2015,06,25,12,35,22.90
2015,06,25,12,36,22.90
2015,06,25,12,37,22.90
2015,06,25,12,38,23.00
2015,06,25,12,39,23.00
2015,06,25,12,40,23.10
2015,06,25,12,41,23.10
2015,06,25,12,42,23.00
2015,06,25,12,43,23.10
2015,06,25,12,44,23.10
2015,06,25,12,45,23.20
2015,06,25,12,46,23.20
2015,06,25,12,47,23.30
2015,06,25,12,48,23.30
2015,06,25,12,49,23.30
2015,06,25,12,50,23.20
2015,06,25,12,51,23.30
2015,06,25,12,52,23.30
2015,06,25,12,53,23.40
2015,06,25,12,54,23.50
2015,06,25,12,55,23.60
2015,06,25,12,56,23.80
2015,06,25,12,57,23.90
2015,06,25,12,58,24.00
2015,06,25,12,59,24.10
2015,06,25,13,00,24.10
2015,06,25,13,01,24.00
2015,06,25,13,02,24.00
2015,06,25,13,03,23.90
2015,06,25,13,04,23.90
2015,06,25,13,05,23.90
2015,06,25,13,06,23.90
2015,06,25,13,07,24.00
2015,06,25,13,08,23.90
2015,06,25,13,09,23.90
2015,06,25,13,10,23.90
2015,06,25,13,11,23.90
2015,06,25,13,12,24.00
2015,06,25,13,13,24.00
2015,06,25,13,14,24.00
2015,06,25,13,15,23.90
2015,06,25,13,16,23.90
2015,06,25,13,17,23.90
2015,06,25,13,18,23.80
2015,06,25,13,19,23.80
2015,06,25,13,20,23.80
2015,06,25,13,21,23.90
2015,06,25,13,22,24.00
2015,06,25,13,23,24.10
2015,06,25,13,24,24.10
2015,06,25,13,25,24.20
2015,06,25,13,26,24.30
2015,06,25,13,27,24.30
2015,06,25,13,28,24.40
2015,06,25,13,29,24.40
2015,06,25,13,30,24.50
2015,06,25,13,31,24.60
2015,06,25,13,32,24.70
2015,06,25,13,33,24.80
2015,06,25,13,34,24.80
2015,06,25,13,35,24.90
2015,06,25,13,36,24.90
2015,06,25,13,37,24.90
2015,06,25,13,38,25.00
2015,06,25,13,39,25.00
2015,06,25,13,40,25.00
2015,06,25,13,41,25.00
2015,06,25,13,42,25.10
2015,06,25,13,43,25.10
2015,06,25,13,44,25.20
2015,06,25,13,45,25.20
2015,06,25,13,46,25.20
2015,06,25,13,47,25.20
2015,06,25,13,48,25.20
2015,06,25,13,49,25.20
2015,06,25,13,50,25.20
2015,06,25,13,51,25.20
2015,06,25,13,52,25.20
2015,06,25,13,53,25.20
2015,06,25,13,54,25.20
2015,06,25,13,55,25.20
2015,06,25,13,56,25.20
2015,06,25,13,57,25.20
2015,06,25,13,58,25.30
2015,06,25,13,59,25.30
2015,06,25,14,00,25.30
2015,06,25,14,01,25.40
2015,06,25,14,02,25.40
2015,06,25,14,03,25.40
2015,06,25,14,04,25.40
2015,06,25,14,05,25.40
2015,06,25,14,06,25.40
2015,06,25,14,07,25.30
2015,06,25,14,08,25.30
2015,06,25,14,09,25.20
2015,06,25,14,10,25.20
2015,06,25,14,11,25.30
2015,06,25,14,12,25.30
2015,06,25,14,13,25.30
2015,06,25,14,14,25.20
2015,06,25,14,15,25.10
2015,06,25,14,16,25.10
2015,06,25,14,17,25.20
2015,06,25,14,18,25.30
2015,06,25,14,19,25.40
2015,06,25,14,20,25.40
2015,06,25,14,21,25.50
2015,06,25,14,22,25.50
2015,06,25,14,23,25.50
2015,06,25,14,24,25.40
2015,06,25,14,25,25.40
2015,06,25,14,26,25.30
2015,06,25,14,27,25.30
2015,06,25,14,28,25.30
2015,06,25,14,29,25.30
2015,06,25,14,30,25.30
2015,06,25,14,31,25.30
2015,06,25,14,32,25.30
2015,06,25,14,33,25.30
2015,06,25,14,34,25.30
2015,06,25,14,35,25.20
2015,06,25,14,36,25.20
2015,06,25,14,37,25.20
2015,06,25,14,38,25.10
2015,06,25,14,39,25.10
2015,06,25,14,40,25.10
2015,06,25,14,41,25.20
2015,06,25,14,42,25.30
2015,06,25,14,43,25.30
2015,06,25,14,44,25.40
2015,06,25,14,45,25.40
2015,06,25,14,46,25.30
2015,06,25,14,47,25.30
2015,06,25,14,48,25.20
2015,06,25,14,49,25.20
2015,06,25,14,50,25.20
2015,06,25,14,51,25.20
2015,06,25,14,52,25.10
2015,06,25,14,53,25.10
2015,06,25,14,54,25.10
2015,06,25,14,55,25.00
2015,06,25,14,56,24.90
2015,06,25,14,57,24.90
2015,06,25,14,58,24.80
2015,06,25,14,59,24.70
2015,06,25,15,00,24.70
2015,06,25,15,01,24.80
2015,06,25,15,02,24.80
2015,06,25,15,03,24.80
2015,06,25,15,04,24.80
2015,06,25,15,05,24.80
2015,06,25,15,06,24.80
2015,06,25,15,07,24.80
2015,06,25,15,08,24.90
2015,06,25,15,09,24.90
2015,06,25,15,10,25.00
2015,06,25,15,11,25.00
2015,06,25,15,12,25.00
2015,06,25,15,13,25.00
2015,06,25,15,14,25.00
2015,06,25,15,15,25.00
2015,06,25,15,16,25.10
2015,06,25,15,17,25.10
2015,06,25,15,18,25.10
2015,06,25,15,19,25.20
2015,06,25,15,20,25.20
2015,06,25,15,21,25.20
2015,06,25,15,22,25.20
2015,06,25,15,23,25.10
2015,06,25,15,24,25.00
2015,06,25,15,25,24.90
2015,06,25,15,26,24.80
2015,06,25,15,27,24.70
2015,06,25,15,28,24.70
2015,06,25,15,29,24.60
2015,06,25,15,30,24.60
2015,06,25,15,31,24.60
2015,06,25,15,32,24.60
2015,06,25,15,33,24.60
2015,06,25,15,34,24.60
2015,06,25,15,35,24.60
2015,06,25,15,36,24.60
2015,06,25,15,37,24.70
2015,06,25,15,38,24.70
2015,06,25,15,39,24.70
2015,06,25,15,40,24.80
2015,06,25,15,41,24.80
2015,06,25,15,42,24.90
2015,06,25,15,43,24.90
2015,06,25,15,44,25.00
2015,06,25,15,45,25.10
2015,06,25,15,46,25.10
2015,06,25,15,47,25.10
2015,06,25,15,48,25.10
2015,06,25,15,49,25.10
2015,06,25,15,50,25.10
2015,06,25,15,51,25.20
2015,06,25,15,52,25.20
2015,06,25,15,53,25.20
2015,06,25,15,54,25.20
2015,06,25,15,55,25.20
2015,06,25,15,56,25.20
2015,06,25,15,57,25.20
2015,06,25,15,58,25.20
2015,06,25,15,59,25.10
2015,06,25,16,00,25.10
2015,06,25,16,01,25.20
2015,06,25,16,02,25.20
2015,06,25,16,03,25.20
2015,06,25,16,04,25.30
2015,06,25,16,05,25.40
2015,06,25,16,06,25.50
2015,06,25,16,07,25.70
2015,06,25,16,08,25.80
2015,06,25,16,09,25.90
2015,06,25,16,10,25.90
2015,06,25,16,11,25.90
2015,06,25,16,12,26.00
2015,06,25,16,13,26.10
2015,06,25,16,14,26.30
2015,06,25,16,15,26.40
2015,06,25,16,16,26.50
2015,06,25,16,17,26.60
2015,06,25,16,18,26.60
2015,06,25,16,19,26.60
2015,06,25,16,20,26.70
2015,06,25,16,21,26.70
2015,06,25,16,22,26.80
2015,06,25,16,23,26.80
2015,06,25,16,24,26.80
2015,06,25,16,25,26.90
2015,06,25,16,26,26.90
2015,06,25,16,27,26.90
2015,06,25,16,28,26.90
2015,06,25,16,29,26.80
2015,06,25,16,30,26.80
2015,06,25,16,31,26.80
2015,06,25,16,32,26.70
2015,06,25,16,33,26.80
2015,06,25,16,34,26.80
2015,06,25,16,35,26.90
2015,06,25,16,36,27.00
2015,06,25,16,37,27.00
2015,06,25,16,38,27.00
2015,06,25,16,39,27.00
2015,06,25,16,40,27.00
2015,06,25,16,41,26.90
2015,06,25,16,42,26.90
2015,06,25,16,43,26.90
2015,06,25,16,44,26.90
2015,06,25,16,45,26.80
2015,06,25,16,46,26.70
2015,06,25,16,47,26.70
2015,06,25,16,48,26.60
2015,06,25,16,49,26.60
2015,06,25,16,50,26.60
2015,06,25,16,51,26.70
2015,06,25,16,52,26.70
2015,06,25,16,53,26.80
2015,06,25,16,54,26.80
2015,06,25,16,55,26.70
2015,06,25,16,56,26.70
2015,06,25,16,57,26.70
2015,06,25,16,58,26.60
2015,06,25,16,59,26.50
2015,06,25,17,00,26.50
2015,06,25,17,01,26.40
2015,06,25,17,02,26.40
2015,06,25,17,03,26.40
2015,06,25,17,04,26.40
2015,06,25,17,05,26.30
2015,06,25,17,06,26.30
2015,06,25,17,07,26.30
2015,06,25,17,08,26.30
2015,06,25,17,09,26.20
2015,06,25,17,10,26.10
2015,06,25,17,11,26.10
2015,06,25,17,12,26.00
2015,06,25,17,13,26.00
2015,06,25,17,14,26.00
2015,06,25,17,15,26.00
2015,06,25,17,16,26.00
2015,06,25,17,17,26.00
2015,06,25,17,18,26.10
2015,06,25,17,19,26.20